This is the latest recevied weather packets stored in our database for station/object K4PAD. If no packets are shown the sender has not sent any weather packets the latest 10 day(s).
| Time | Temp. | Humidity | Pressure | Rain* | Wind** | Luminosity | Snow |
|---|---|---|---|---|---|---|---|
| 1777920041 | 26.11° C | 36% | 1018.3 hPa | 0 mm | - | 1016 W/m² | - |
| 1777919738 | 26.67° C | 34% | 1018.3 hPa | 0 mm | - | 1019 W/m² | - |
| 1777919436 | 26.67° C | 33% | 1018.7 hPa | 0 mm | - | 1029 W/m² | - |
| 1777919133 | 26.67° C | 33% | 1018.7 hPa | 0 mm | - | 1035 W/m² | - |
| 1777918830 | 26.67° C | 34% | 1018.7 hPa | 0 mm | - | 1042 W/m² | - |
| 1777918527 | 26.11° C | 33% | 1018.6 hPa | 0 mm | - | 1042 W/m² | - |
| 1777918225 | 26.11° C | 34% | 1018.6 hPa | 0 mm | - | 1047 W/m² | - |
| 1777917924 | 26.67° C | 33% | 1018.7 hPa | 0 mm | - | 1052 W/m² | - |
| 1777917623 | 26.67° C | 33% | 1018.7 hPa | 0 mm | - | 1053 W/m² | - |
| 1777917319 | 26.11° C | 33% | 1018.5 hPa | 0 mm | - | 1052 W/m² | - |
| 1777917016 | 26.67° C | 32% | 1018.7 hPa | 0 mm | - | 1059 W/m² | - |
| 1777916714 | 26.11° C | 32% | 1018.9 hPa | 0 mm | - | 1072 W/m² | - |
| 1777916411 | 26.11° C | 31% | 1018.9 hPa | 0 mm | - | 1074 W/m² | - |
| 1777916108 | 26.11° C | 32% | 1019 hPa | 0 mm | - | 1066 W/m² | - |
| 1777915805 | 26.11° C | 34% | 1019 hPa | 0 mm | - | 1065 W/m² | - |
| 1777915501 | 26.67° C | 32% | 1019 hPa | 0 mm | - | 1068 W/m² | - |
| 1777915197 | 26.67° C | 32% | 1019 hPa | 0 mm | - | 1067 W/m² | - |
| 1777914895 | 26.67° C | 32% | 1019.2 hPa | 0 mm | - | 1068 W/m² | - |
| 1777914591 | 26.67° C | 31% | 1019 hPa | 0 mm | - | 1065 W/m² | - |
| 1777914287 | 26.11° C | 32% | 1019.4 hPa | 0 mm | - | 1061 W/m² | - |
| 1777913985 | 26.67° C | 34% | 1019.4 hPa | 0 mm | - | 1057 W/m² | - |
| 1777913681 | 25.56° C | 33% | 1019.3 hPa | 0 mm | - | 1051 W/m² | - |
| 1777913378 | 26.11° C | 32% | 1019.6 hPa | 0 mm | - | 1050 W/m² | - |
| 1777913074 | 25.56° C | 32% | 1019.7 hPa | 0 mm | - | 1044 W/m² | - |
| 1777912771 | 25° C | 35% | 1019.8 hPa | 0 mm | - | 1038 W/m² | - |
* Rain latest hour (hover to see other rain measurements)
** Current wind speed in m/s (hover to see current wind gust speed)